Regional Weather Roundup
Issued by NWS Sterling, VA

Home | Current Version | Previous Version | Text Only | Print | Product List | Glossary Off
Versions: 1 2 3 4 5 6 7 8 9 10 11 12 13 14 15 16 17 18 19 20 21 22 23 24 25 26 27 28 29 30 31 32 33 34 35 36 37 38 39 40 41 42 43 44 45 46 47 48 49 50

000
ASUS41 KLWX 171410
RWRLWX

REGIONAL WEATHER ROUNDUP
NATIONAL WEATHER SERVICE BALTIMORE MD/WASHINGTON DC
900 AM EST WED DEC 17 2014

Note: "FAIR" indicates few or no clouds below 12,000 feet
with no significant weather and/or obstructions to visibility.
 TC=TEMPERATURE CELSIUS

 * =Non NWS site. Station does not report precipitation (e.g. rain,
    snow, etc.), thunder, or fog.

DCZ001-MDZ009-015-VAZ040>042-051-053>054-171500-
WASHINGTON METRO

CITY           SKY/WX    TMP DP  RH WIND       PRES   REMARKS
WASHINGTON NAT MOSUNNY   52  38  58 NW7       30.00R
DULLES         MOSUNNY   44  40  85 W3        30.00R
ANDREWS AFB    SUNNY     44  40  85 S5        29.98R
FT BELVOIR     SUNNY     46  44  95 NW8       30.00R
QUANTICO       FOG       40  38  93 SW3       30.02R VSB 1/2
COLLEGE PARK*  SUNNY     45  45 100 W8        29.98R
LEESBURG*      PTSUNNY   50  41  71 MISG      30.01R
GAITHERSBURG*  SUNNY     45  37  76 W10G17    30.01R

$$

MDZ006>007-011-014-171500-
BALTIMORE METRO

CITY           SKY/WX    TMP DP  RH WIND       PRES   REMARKS
BWI AIRPORT    MOSUNNY   44  39  82 SW6       29.97R
MD SCIENCE CTR   N/A     42  40  92 MISG      29.99R
ANNAPOLIS      SUNNY     44  39  82 CALM      29.98R
FORT MEADE*      N/A     34  32  93 CALM      30.00R

$$

MDZ012-015-019>023-171500-
MARYLAND EASTERN SHORE

CITY           SKY/WX    TMP DP  RH WIND       PRES   REMARKS
OCEAN CITY     SUNNY     46  41  82 W8        29.99R
SALISBURY      SUNNY     48  41  76 W6        29.99R
BAY BRIDGE AP*   N/A     43  39  87 W5        29.98R
CAMBRIDGE*     SUNNY     46  41  81 W3        29.99R
EASTON*        SUNNY     46  46 100 W5        30.02R

$$

MDZ017>025-171500-
SOUTHERN MARYLAND

CITY           SKY/WX    TMP DP  RH WIND       PRES   REMARKS
PATUXENT RIVER MOSUNNY   43  41  93 W8        30.01R FOG
ST INIGOES     FOG       43  40  89 W7        30.01R VSB 1
LEONARDTOWN*   CLOUDY    41  39  93 MISG        N/A  VSB 1/2

$$

MDZ003>005-171500-
NORTH CENTRAL MARYLAND

CITY           SKY/WX    TMP DP  RH WIND       PRES   REMARKS
FREDERICK*     MOSUNNY   50  37  62 W12       30.01R
HAGERSTOWN APT CLOUDY    47  36  65 W7        29.98R
WESTMINSTER*   MOSUNNY   45  39  81 W7        29.95R

$$

MDZ501>502-171500-
WESTERN MARYLAND

CITY           SKY/WX    TMP DP  RH WIND       PRES   REMARKS
OAKLAND*       FOG       30 N/A N/A W14G22    29.98R VSB 3/4 WCI  20
CUMBERLAND*    CLOUDY    45  32  61 W7        30.05R

$$

VAZ025>031-171500-
SHENANDOAH VALLEY

CITY           SKY/WX    TMP DP  RH WIND       PRES   REMARKS
WINCHESTER*    CLOUDY    48  32  53 W7        30.00R
FRONT ROYAL*   CLOUDY    43  37  81 CALM      29.99R
LURAY*         CLOUDY    50  36  57 S7        30.00R
NEW MARKET*    CLOUDY    41  37  87 CALM      30.00R
STAUNTON*      CLOUDY    44  36  74 SW3       30.02R
WAYNESBORO*    CLOUDY    45  34  64 SW9       30.00S

$$

WVZ021-048>050-054>055-171500-
EASTERN WEST VIRGINIA PANHANDLE

CITY           SKY/WX    TMP DP  RH WIND       PRES   REMARKS
MARTINSBURG    CLOUDY    48  34  58 W7        29.99R
PETERSBURG*    MOSUNNY   44  31  58 W10G23    30.01S

$$

VAZ036>039-050-171500-
CENTRAL FOOTHILLS

CITY           SKY/WX    TMP DP  RH WIND       PRES   REMARKS
CHARLOTTESVILL PTSUNNY   48  38  68 S8        30.01R
CULPEPER*      MOSUNNY   37  37 100 CALM      30.02R
ORANGE*        PTSUNNY   41  39  93 S5        30.02S
GORDONSVILLE*  CLOUDY    39  39  97 CALM      30.02R
WARRENTON*     FOG       37  37 100 CALM      30.01R VSB 1/2

$$

VAZ055>057-171500-
NORTH AND CENTRAL PIEDMONT

CITY           SKY/WX    TMP DP  RH WIND       PRES   REMARKS
FREDERICKSBRG* PTSUNNY   40  40 100 CALM      30.01R FOG
STAFFORD*      FOG       38  38 100 CALM      30.05S VSB 1/4

$$

NCZ024-NYZ072-PAZ021-071-VAZ022-071-171500-
OTHER REGIONAL OBSERVATIONS

CITY           SKY/WX    TMP DP  RH WIND       PRES   REMARKS
NEW YORK CITY  MOSUNNY   46  39  76 W8        29.87R
PHILADELPHIA   MOSUNNY   45  40  82 W10       29.93R
PITTSBURGH     CLOUDY    36  31  82 SW13G20   30.03R WCI  27
ROANOKE        CLOUDY    47  32  56 NW20G30   30.09R
RICHMOND       MOSUNNY   47  39  74 W9        30.03R
RALEIGH        MOSUNNY   46  38  73 W5        30.11R

$$

ANZ530>537-171500-
MARINE OBSERVATIONS

STATION/POSITION TIME  TEMP    WIND        PRES
                       AIR SEA DIR/SP/G
                 (UTC) (F)     (DEG/KT/KT) (MB)
THOMAS PT LIGHT  1400   43 42  230/  5/  5 1016.5R
BALT KEY BRIDGE  1400   42     230/ 11/ 12 1014.6R
COVE POINT       1400   42     270/  6/  9 1015.9R
LEWISETTA        1400   42 44  240/  5/  6 1016.1R
SOLOMONS ISLAND  1400      44                N/A
PINEY POINT      1400          350/  4/  5   N/A

$$



USA.gov is the U.S. government's official web portal to all federal, state and local government web resources and services.